Le nostre stazioni meteo in Italia

Pubblicità
Il mio iltempo24.it
Capri, Italia (16294): Temperatura & dewpoint: 04.04.2020 04:00:00 - 10.04.2020 04:00:00 (CEST)Capri, Italia (16294): velocità del vento: 04.04.2020 04:00:00 - 10.04.2020 04:00:00 (CEST)Capri, Italia (16294): direzione del vento: 04.04.2020 04:00:00 - 10.04.2020 04:00:00 (CEST)Capri, Italia (16294): reduced air pressure: 04.04.2020 04:00:00 - 10.04.2020 04:00:00 (CEST)Capri, Italia (16294): visibility: 04.04.2020 04:00:00 - 10.04.2020 04:00:00 (CEST)
Data & Tempo tt [°C] td [°C] ff [km/h] ff [kn] dd ppp [hPa] vv [km]
10.04.2020 04:00:00 - - - - - - -
10.04.2020 03:00:00 - - - - - - -
10.04.2020 02:00:00 - - - - - - -
10.04.2020 01:00:00 - - - - - - -
10.04.2020 00:00:00 - - - - - - -
09.04.2020 23:00:00 - - - - - - -
09.04.2020 22:00:00 - - - - - - -
09.04.2020 21:00:00 - - - - - - -
09.04.2020 20:00:00 15,6 12,5 0 0 N 1021,3 20
09.04.2020 19:00:00 16,0 12,0 5 3 O - 10
09.04.2020 18:00:00 17,0 11,0 9 5 O - 10
09.04.2020 17:00:00 17,2 11,5 5 3 OSO 1021,7 20
09.04.2020 16:00:00 18,0 12,0 5 3 O - 10
09.04.2020 15:00:00 17,0 11,0 5 3 OSO - 10
09.04.2020 14:00:00 16,8 9,5 9 5 O 1022,8 20
09.04.2020 13:00:00 17,0 6,0 0 0 N - 10
09.04.2020 12:00:00 16,0 8,0 4 2 NO - 10
09.04.2020 11:00:00 14,8 8,1 0 0 N 1023,4 20
09.04.2020 10:00:00 14,0 7,0 0 0 N - 10
09.04.2020 09:00:00 13,0 10,0 0 0 N - 10
09.04.2020 08:00:00 12,6 10,1 4 2 ENE 1022,5 15
09.04.2020 07:00:00 - - - - - - -
09.04.2020 06:00:00 - - - - - - -
09.04.2020 05:00:00 - - - - - - -
09.04.2020 04:00:00 - - - - - - -
09.04.2020 03:00:00 - - - - - - -
09.04.2020 02:00:00 - - - - - - -
09.04.2020 01:00:00 - - - - - - -
09.04.2020 00:00:00 - - - - - - -
08.04.2020 23:00:00 - - - - - - -
08.04.2020 22:00:00 - - - - - - -
08.04.2020 21:00:00 - - - - - - -
08.04.2020 20:00:00 14,6 8,5 5 3 NE 1022,9 20
08.04.2020 19:00:00 16,0 8,0 0 0 N - 10
08.04.2020 18:00:00 17,0 9,0 0 0 N - 10
08.04.2020 17:00:00 17,2 8,9 5 3 O 1023,2 30
08.04.2020 16:00:00 18,0 8,0 11 6 O - 10
08.04.2020 15:00:00 18,0 8,0 5 3 O - 10
08.04.2020 14:00:00 17,0 5,3 5 3 OSO 1024,4 30
08.04.2020 13:00:00 16,0 7,0 0 0 N - 10
08.04.2020 12:00:00 16,0 6,0 5 3 E - 10
08.04.2020 11:00:00 15,4 4,7 4 2 E 1025,5 30
08.04.2020 10:00:00 15,0 6,0 2 1 E - 10
08.04.2020 09:00:00 15,0 0,0 0 0 N - 10
08.04.2020 08:00:00 14,0 0,3 4 2 ENE 1025,3 25
08.04.2020 07:00:00 - - - - - - -
08.04.2020 06:00:00 - - - - - - -
08.04.2020 05:00:00 - - - - - - -
08.04.2020 04:00:00 - - - - - - -
08.04.2020 03:00:00 - - - - - - -
08.04.2020 02:00:00 - - - - - - -
08.04.2020 01:00:00 - - - - - - -
08.04.2020 00:00:00 - - - - - - -
07.04.2020 23:00:00 - - - - - - -
07.04.2020 22:00:00 - - - - - - -
07.04.2020 21:00:00 - - - - - - -
07.04.2020 20:00:00 14,4 9,0 2 1 N 1025,3 35
07.04.2020 19:00:00 16,0 9,0 2 1 NNO - 10
07.04.2020 18:00:00 17,0 8,0 4 2 NO - 10
07.04.2020 17:00:00 17,0 8,2 4 2 O 1025,1 35
07.04.2020 16:00:00 18,0 4,0 8 4 O - 10
07.04.2020 15:00:00 17,0 8,0 9 5 O - 10
07.04.2020 14:00:00 16,4 9,8 5 3 O 1026,1 35
07.04.2020 13:00:00 18,0 -1,0 2 1 N - 10
07.04.2020 12:00:00 18,0 2,0 4 2 NE - 10
07.04.2020 11:00:00 16,2 2,6 4 2 NE 1026,0 35
07.04.2020 10:00:00 15,0 3,0 5 3 NE - 10
07.04.2020 09:00:00 15,0 2,0 8 4 ENE - 10
07.04.2020 08:00:00 13,0 5,7 4 2 NE 1025,5 25
07.04.2020 07:00:00 - - - - - - -
07.04.2020 06:00:00 - - - - - - -
07.04.2020 05:00:00 - - - - - - -
07.04.2020 04:00:00 - - - - - - -
07.04.2020 03:00:00 - - - - - - -
07.04.2020 02:00:00 - - - - - - -
07.04.2020 01:00:00 - - - - - - -
07.04.2020 00:00:00 - - - - - - -
06.04.2020 23:00:00 - - - - - - -
06.04.2020 22:00:00 - - - - - - -
06.04.2020 21:00:00 - - - - - - -
06.04.2020 20:00:00 14,8 8,3 0 0 N 1024,2 25
06.04.2020 19:00:00 15,0 8,0 2 1 - - 10
06.04.2020 18:00:00 15,0 7,0 5 3 O - 10
06.04.2020 17:00:00 15,0 7,3 4 2 O 1023,2 25
06.04.2020 16:00:00 19,0 9,0 8 4 O - 10
06.04.2020 15:00:00 18,0 7,0 5 3 - - 10
06.04.2020 14:00:00 18,0 5,2 5 3 O 1022,8 25
06.04.2020 13:00:00 18,0 5,0 8 4 NE - 10
06.04.2020 12:00:00 18,0 5,0 9 5 ENE - 10
06.04.2020 11:00:00 16,0 6,4 15 8 NE 1022,3 25
06.04.2020 10:00:00 14,0 7,0 11 6 NE - 10
06.04.2020 09:00:00 14,0 8,0 5 3 E - 10
06.04.2020 08:00:00 14,0 8,2 4 2 NE 1019,4 20
06.04.2020 07:00:00 - - - - - - -
06.04.2020 06:00:00 - - - - - - -
06.04.2020 05:00:00 - - - - - - -
06.04.2020 04:00:00 - - - - - - -
06.04.2020 03:00:00 - - - - - - -
06.04.2020 02:00:00 - - - - - - -
06.04.2020 01:00:00 - - - - - - -
06.04.2020 00:00:00 - - - - - - -
05.04.2020 23:00:00 - - - - - - -
05.04.2020 22:00:00 - - - - - - -
05.04.2020 21:00:00 - - - - - - -
05.04.2020 20:00:00 15,8 4,2 4 2 SSO 1017,7 20
05.04.2020 19:00:00 16,0 5,0 5 3 SSO - 10
05.04.2020 18:00:00 17,0 6,0 5 3 SO - 10
05.04.2020 17:00:00 16,8 4,8 9 5 ENE 1015,9 20
05.04.2020 16:00:00 18,0 5,0 0 0 N - 10
05.04.2020 15:00:00 18,0 4,0 4 2 SSO - 10
05.04.2020 14:00:00 17,0 5,0 4 2 SSO 1016,6 20
05.04.2020 13:00:00 18,0 7,0 5 3 SSO - 10
05.04.2020 12:00:00 17,0 5,0 15 8 SSO - 10
05.04.2020 11:00:00 15,2 5,4 9 5 SSO 1017,1 20
05.04.2020 10:00:00 15,0 5,0 5 3 SSO - 10
05.04.2020 09:00:00 14,0 5,0 4 2 SO - 10
05.04.2020 08:00:00 13,0 3,4 5 3 SO 1006,1 20
05.04.2020 07:00:00 - - - - - - -
05.04.2020 06:00:00 - - - - - - -
05.04.2020 05:00:00 - - - - - - -
05.04.2020 04:00:00 - - - - - - -
05.04.2020 03:00:00 - - - - - - -
05.04.2020 02:00:00 - - - - - - -
05.04.2020 01:00:00 - - - - - - -
05.04.2020 00:00:00 - - - - - - -
04.04.2020 23:00:00 - - - - - - -
04.04.2020 22:00:00 - - - - - - -
04.04.2020 21:00:00 - - - - - - -
04.04.2020 20:00:00 15,2 0,6 9 5 O 1014,3 20
04.04.2020 19:00:00 17,0 2,0 5 3 SSO - 10
04.04.2020 18:00:00 18,0 2,0 9 5 OSO - 10
04.04.2020 17:00:00 16,0 9,0 11 6 NO 1013,3 20
04.04.2020 16:00:00 16,0 8,0 5 3 O - 10
04.04.2020 15:00:00 16,0 7,0 5 3 O - 10
04.04.2020 14:00:00 16,4 7,9 9 5 O 1014,0 20
04.04.2020 13:00:00 16,0 7,0 5 3 SO - 10
04.04.2020 12:00:00 16,0 6,0 9 5 OSO - 10
04.04.2020 11:00:00 14,2 4,8 16 9 O 1014,2 20
04.04.2020 10:00:00 13,0 5,0 5 3 O - 10
04.04.2020 09:00:00 12,0 3,0 11 6 O - 10
04.04.2020 08:00:00 11,4 1,9 9 5 NE 1012,4 15
04.04.2020 07:00:00 - - - - - - -
04.04.2020 06:00:00 - - - - - - -
04.04.2020 05:00:00 - - - - - - -
04.04.2020 04:00:00 - - - - - - -

tt = Temperatura
td = dewpoint
ff = velocità del vento
dd = direzione del vento
ppp = reduced air pressure
vv = visibility

Stazioni seguenti

WeatherPro
AMSI
MeteoEarth